TimeEDT,TemperatureF,Dew PointF,Humidity,Sea Level PressureIn,VisibilityMPH,Wind Direction,Wind SpeedMPH,Gust SpeedMPH,PrecipitationIn,Events,Conditions,WindDirDegrees,DateUTC
12:54 AM,48.0,28.9,48,29.89,10.0,West,5.8,-,N/A,,Overcast,280,2013-10-27 04:54:00
1:54 AM,48.0,28.9,48,29.89,10.0,West,8.1,-,N/A,,Overcast,280,2013-10-27 05:54:00
2:54 AM,46.0,30.0,54,29.89,10.0,West,6.9,-,N/A,,Clear,260,2013-10-27 06:54:00
3:54 AM,43.0,30.9,62,29.90,10.0,West,5.8,-,N/A,,Clear,270,2013-10-27 07:54:00
4:54 AM,45.0,33.1,63,29.91,10.0,WSW,5.8,-,N/A,,Overcast,250,2013-10-27 08:54:00
5:54 AM,43.0,33.1,68,29.94,10.0,West,5.8,-,N/A,,Mostly Cloudy,280,2013-10-27 09:54:00
6:54 AM,43.0,33.1,68,29.95,10.0,West,6.9,-,N/A,,Mostly Cloudy,260,2013-10-27 10:54:00
7:54 AM,42.1,32.0,67,29.97,10.0,WNW,6.9,-,N/A,,Scattered Clouds,290,2013-10-27 11:54:00
8:54 AM,45.0,33.1,63,29.99,10.0,West,9.2,-,N/A,,Clear,270,2013-10-27 12:54:00
9:54 AM,46.0,33.1,61,30.01,10.0,West,10.4,-,N/A,,Scattered Clouds,260,2013-10-27 13:54:00
10:54 AM,50.0,34.0,54,30.01,10.0,West,10.4,-,N/A,,Partly Cloudy,260,2013-10-27 14:54:00
11:54 AM,50.0,33.1,52,30.02,10.0,WSW,11.5,-,N/A,,Overcast,240,2013-10-27 15:54:00
12:54 PM,52.0,32.0,47,30.01,10.0,WSW,11.5,18.4,N/A,,Overcast,240,2013-10-27 16:54:00
1:54 PM,51.1,30.9,46,30.01,10.0,West,10.4,-,N/A,,Overcast,260,2013-10-27 17:54:00
2:54 PM,51.1,28.9,43,30.01,10.0,West,10.4,-,N/A,,Overcast,280,2013-10-27 18:54:00
3:54 PM,51.1,28.0,41,30.02,10.0,West,9.2,-,N/A,,Overcast,280,2013-10-27 19:54:00
4:54 PM,50.0,28.9,44,30.04,10.0,West,8.1,-,N/A,,Overcast,260,2013-10-27 20:54:00
5:54 PM,48.9,30.0,48,30.05,10.0,West,10.4,-,N/A,,Overcast,270,2013-10-27 21:54:00
6:54 PM,48.0,30.0,50,30.08,10.0,West,10.4,-,N/A,,Overcast,260,2013-10-27 22:54:00
7:54 PM,46.9,30.0,52,30.09,10.0,West,8.1,-,N/A,,Overcast,270,2013-10-27 23:54:00
8:54 PM,46.0,28.9,51,30.10,10.0,West,6.9,-,N/A,,Mostly Cloudy,270,2013-10-28 00:54:00
9:54 PM,43.0,28.9,58,30.11,10.0,NNW,3.5,-,N/A,,Clear,340,2013-10-28 01:54:00
10:54 PM,37.9,30.0,73,30.13,10.0,Calm,Calm,-,N/A,,Clear,0,2013-10-28 02:54:00
11:54 PM,36.0,30.0,79,30.13,10.0,Calm,Calm,-,N/A,,Clear,0,2013-10-28 03:54:00